Regional Weather Roundup
Issued by NWS

Home | Current Version | Previous Version | Text Only | Print | Product List | Glossary Off
Versions: 1 2 3 4 5 6 7 8 9 10 11 12 13 14 15 16 17 18 19 20 21 22 23 24 25 26 27 28 29 30 31 32 33 34 35 36 37 38 39 40 41 42 43 44 45 46 47 48 49 50

000
ASUS43 KOAX 220602
RWRNE

WEATHER ROUNDUP FOR NEBRASKA
NATIONAL WEATHER SERVICE OMAHA NE
1200 AM CST MON DEC 22 2014

NOTES: SATELLITE DATA IS BEING USED TO AUGMENT CLOUD COVER ABOVE
       12000 FEET.
       "FAIR" INDICATES FEW OR NO CLOUDS BELOW 12,000 FEET WITH NO
       SIGNIFICANT WEATHER AND/OR OBSTRUCTIONS TO VISIBILITY.

  * THESE STATIONS DO NOT REPORT WEATHER SUCH AS RAIN...SNOW OR FOG.

NEZ001>004-019>022-054>056-220700-
NEBRASKA PANHANDLE

CITY           SKY/WX    TMP DP  RH WIND       PRES   REMARKS
SCOTTSBLUFF    CLOUDY    36  31  82 W15       29.61R WCI  27
6HR MIN TEMP:  36; 6HR MAX TEMP:  41; 6HR PCP: TRACE;

ALLIANCE       MOCLDY    37  28  70 NW15      29.56R WCI  28
6HR MIN TEMP:  28; 6HR MAX TEMP:  39;

CHADRON        CLOUDY    38  31  76 NW20G28   29.55R WCI  28
6HR MIN TEMP:  32; 6HR MAX TEMP:  40;

SIDNEY         CLOUDY    37  30  75 NW15      29.60R WCI  28
6HR MIN TEMP:  36; 6HR MAX TEMP:  43;

$$

NEZ057>060-069>072-079>082-220700-
SOUTHWEST NEBRASKA

CITY           SKY/WX    TMP DP  RH WIND       PRES   REMARKS
NORTH PLATTE   CLOUDY    28  26  92 NW6       29.51R WCI  22
6HR MIN TEMP:  25; 6HR MAX TEMP:  37;

IMPERIAL       MOCLDY    40  31  70 NW17      29.55R WCI  31
6HR MIN TEMP:  34; 6HR MAX TEMP:  42; 6HR PCP: TRACE;

MCCOOK         MOCLDY    32  30  92 W8        29.52R FOG     WCI  25
6HR MIN TEMP:  32; 6HR MAX TEMP:  38;

$$

NEZ005>010-023>029-035>040-094-220700-
NORTH CENTRAL NEBRASKA

CITY           SKY/WX    TMP DP  RH WIND       PRES   REMARKS
VALENTINE      LGT RAIN  38  32  79 W10       29.47R WCI  31
6HR MIN TEMP:  35; 6HR MAX TEMP:  41; 6HR PCP: TRACE;

BROKEN BOW     PTCLDY    36  34  92 CALM      29.49S
6HR MIN TEMP:  36; 6HR MAX TEMP:  38;

$$

NEZ041-046>049-061>064-073>077-083>087-220700-
SOUTH CENTRAL NEBRASKA

CITY           SKY/WX    TMP DP  RH WIND       PRES   REMARKS
GRAND ISLAND   CLOUDY    42  39  89 S15       29.54F
6HR MIN TEMP:  39; 6HR MAX TEMP:  42;

HASTINGS       CLOUDY    41  38  89 S13       29.53F
6HR MIN TEMP:  40; 6HR MAX TEMP:  42;

HEBRON         CLOUDY    43  41  92 S10       29.59F
KEARNEY *      CLOUDY    39  37  93 S14       29.52S WCI  31
$$

NEZ011>018-030>034-042>045-220700-
NORTHEAST NEBRASKA

CITY           SKY/WX    TMP DP  RH WIND       PRES   REMARKS
NORFOLK        CLOUDY    42  40  92 S14       29.54F
6HR MIN TEMP:  40; 6HR MAX TEMP:  42; 6HR PCP:  0.02;

COLUMBUS *     CLOUDY    43  39  87 S12       29.58F
TEKAMAH        LGT RAIN  43  41  93 S14       29.62F FOG
6HR MIN TEMP:  41; 6HR MAX TEMP:  43; 6HR PCP: TRACE;

$$

NEZ050>053-065>068-078-088>093-220700-
SOUTHEAST NEBRASKA

CITY           SKY/WX    TMP DP  RH WIND       PRES   REMARKS
LINCOLN        CLOUDY    44  42  93 S15       29.62F
6HR MIN TEMP:  42; 6HR MAX TEMP:  44; 6HR PCP: TRACE;

OMAHA EPPLEY   DRIZZLE   43  42  97 S17       29.65F FOG
6HR MIN TEMP:  42; 6HR MAX TEMP:  43; 6HR PCP:  0.01;

FALLS CITY     CLOUDY    43  41  93 SE12      29.68F
6HR MIN TEMP:  42; 6HR MAX TEMP:  44; 6HR PCP: TRACE;

$$

NEZ044-045-051>053-067-220700-
OMAHA AREA

CITY           SKY/WX    TMP DP  RH WIND       PRES   REMARKS
OMAHA EPPLEY   DRIZZLE   43  42  97 S17       29.65F FOG
6HR MIN TEMP:  42; 6HR MAX TEMP:  43; 6HR PCP:  0.01;

OFFUTT AFB     CLOUDY    43  42  96 SE13      29.64F
$$


USA.gov is the U.S. government's official web portal to all federal, state and local government web resources and services.